• In Hungary
  • List of Countries
  • For 7 days
  • Water Temperature
  • Satellite Maps
  • Weather Map
  • News
  • Weather Widgets
  • user-avatar
    Login

    Hourly Weather Malabo

    Today, 22 May, Tuesday

    Time Temperature Precipitation Wind Pressure Humidity
    00:00 +29°C° 0 mm 3 mps 755 mmHg 82%
    01:00 +28°C° 0 mm 3 mps 755 mmHg 83%
    02:00 +28°C° 0 mm 2 mps 755 mmHg 83%
    03:00 +28°C° 0 mm 2 mps 755 mmHg 83%
    04:00 +28°C° 0 mm 2 mps 755 mmHg 83%
    05:00 +28°C° 0 mm 2 mps 755 mmHg 82%
    06:00 +28°C° 0 mm 2 mps 755 mmHg 81%
    07:00 +28°C° 0 mm 1 mps 755 mmHg 81%
    08:00 +29°C° 0.2 mm 1 mps 756 mmHg 77%
    09:00 +30°C° 0.2 mm 1 mps 756 mmHg 74%
    10:00 +31°C° 0.2 mm 1 mps 756 mmHg 71%
    11:00 +31°C° 0 mm 1 mps 756 mmHg 71%
    12:00 +31°C° 0 mm 2 mps 755 mmHg 71%
    13:00 +31°C° 0 mm 2 mps 755 mmHg 72%
    14:00 +31°C° 0 mm 3 mps 754 mmHg 73%
    15:00 +30°C° 0 mm 3 mps 754 mmHg 75%
    16:00 +30°C° 0 mm 4 mps 753 mmHg 77%
    17:00 +30°C° 0 mm 4 mps 753 mmHg 78%
    18:00 +29°C° 0 mm 4 mps 754 mmHg 80%
    19:00 +29°C° 0 mm 4 mps 754 mmHg 81%
    20:00 +29°C° 0 mm 4 mps 754 mmHg 82%
    21:00 +29°C° 0 mm 4 mps 755 mmHg 83%
    22:00 +29°C° 0 mm 4 mps 755 mmHg 83%
    23:00 +29°C° 0 mm 4 mps 755 mmHg 84%

    Tomorrow, 23 May, Wednesday

    Time Temperature Precipitation Wind Pressure Humidity
    00:00 +29°C° 0 mm 3 mps 755 mmHg 84%
    01:00 +29°C° 0 mm 3 mps 755 mmHg 84%
    02:00 +29°C° 0 mm 3 mps 755 mmHg 84%
    03:00 +29°C° 0 mm 3 mps 755 mmHg 84%
    04:00 +29°C° 0 mm 3 mps 754 mmHg 84%
    05:00 +29°C° 0.3 mm 3 mps 755 mmHg 83%
    06:00 +29°C° 0.3 mm 3 mps 755 mmHg 83%
    07:00 +29°C° 0.3 mm 2 mps 756 mmHg 82%
    08:00 +29°C° 0.3 mm 2 mps 756 mmHg 80%
    09:00 +30°C° 0.3 mm 2 mps 756 mmHg 78%
    10:00 +30°C° 0.3 mm 2 mps 757 mmHg 76%
    11:00 +30°C° 0.1 mm 2 mps 757 mmHg 76%
    12:00 +31°C° 0.1 mm 3 mps 756 mmHg 75%
    13:00 +31°C° 0.1 mm 3 mps 756 mmHg 75%
    14:00 +32°C° 0 mm 4 mps 755 mmHg 76%
    15:00 +30°C° 0 mm 4 mps 755 mmHg 77%
    16:00 +30°C° 0 mm 5 mps 754 mmHg 77%
    17:00 +30°C° 0 mm 5 mps 754 mmHg 79%
    18:00 +29°C° 0 mm 5 mps 755 mmHg 81%
    19:00 +29°C° 0 mm 5 mps 755 mmHg 82%
    20:00 +29°C° 0 mm 4 mps 755 mmHg 83%
    21:00 +29°C° 0 mm 4 mps 756 mmHg 83%
    22:00 +29°C° 0 mm 3 mps 757 mmHg 84%
    23:00 +29°C° 0 mm 3 mps 756 mmHg 84%

    Day after tomorrow, 24 May, Thursday

    Time Temperature Precipitation Wind Pressure Humidity
    00:00 +29°C° 0 mm 3 mps 756 mmHg 84%
    01:00 +29°C° 0 mm 3 mps 756 mmHg 85%
    02:00 +29°C° 0.2 mm 3 mps 756 mmHg 85%
    03:00 +29°C° 0.2 mm 3 mps 755 mmHg 85%
    04:00 +28°C° 0.2 mm 3 mps 755 mmHg 84%
    05:00 +28°C° 0.4 mm 3 mps 755 mmHg 84%
    06:00 +29°C° 0.4 mm 3 mps 756 mmHg 83%
    07:00 +29°C° 0.4 mm 2 mps 756 mmHg 82%
    08:00 +29°C° 0 mm 2 mps 756 mmHg 80%
    09:00 +30°C° 0 mm 2 mps 757 mmHg 78%
    10:00 +30°C° 0 mm 2 mps 757 mmHg 76%
    11:00 +30°C° 0 mm 2 mps 757 mmHg 76%
    12:00 +30°C° 0 mm 3 mps 756 mmHg 77%
    13:00 +30°C° 0 mm 3 mps 756 mmHg 78%
    14:00 +30°C° 0 mm 4 mps 755 mmHg 78%
    15:00 +30°C° 0 mm 4 mps 754 mmHg 79%
    16:00 +30°C° 0 mm 4 mps 754 mmHg 79%
    17:00 +29°C° 0 mm 4 mps 754 mmHg 80%
    18:00 +29°C° 0 mm 4 mps 754 mmHg 81%
    19:00 +29°C° 0 mm 4 mps 754 mmHg 83%
    20:00 +29°C° 0 mm 4 mps 755 mmHg 83%
    21:00 +29°C° 0 mm 4 mps 755 mmHg 84%
    22:00 +29°C° 0 mm 4 mps 756 mmHg 85%
    23:00 +29°C° 0.3 mm 4 mps 756 mmHg 85%

    25 May, Friday

    Time Temperature Precipitation Wind Pressure Humidity
    00:00 +29°C° 0.3 mm 4 mps 755 mmHg 85%
    01:00 +28°C° 0.3 mm 4 mps 755 mmHg 86%
    02:00 +28°C° 0.8 mm 4 mps 755 mmHg 85%
    03:00 +28°C° 0.8 mm 4 mps 754 mmHg 85%
    04:00 +28°C° 0.8 mm 4 mps 754 mmHg 84%
    05:00 +28°C° 0.9 mm 3 mps 755 mmHg 83%
    06:00 +28°C° 0.9 mm 3 mps 755 mmHg 82%
    07:00 +28°C° 0.9 mm 3 mps 756 mmHg 81%
    08:00 +29°C° 0.3 mm 2 mps 756 mmHg 79%
    09:00 +29°C° 0.3 mm 2 mps 756 mmHg 77%
    10:00 +29°C° 0.3 mm 2 mps 756 mmHg 76%
    11:00 +30°C° 0 mm 2 mps 756 mmHg 76%
    12:00 +30°C° 0 mm 2 mps 755 mmHg 77%
    13:00 +30°C° 0 mm 2 mps 755 mmHg 77%
    14:00 +30°C° 0 mm 3 mps 754 mmHg 77%
    15:00 +30°C° 0 mm 3 mps 754 mmHg 77%
    16:00 +30°C° 0 mm 3 mps 753 mmHg 77%
    17:00 +29°C° 0 mm 3 mps 754 mmHg 78%
    18:00 +29°C° 0 mm 3 mps 754 mmHg 79%
    19:00 +29°C° 0 mm 4 mps 754 mmHg 81%
    20:00 +29°C° 0 mm 4 mps 755 mmHg 81%
    21:00 +29°C° 0 mm 4 mps 755 mmHg 82%
    22:00 +29°C° 0 mm 4 mps 755 mmHg 82%
    23:00 +29°C° 0 mm 4 mps 755 mmHg 83%

    26 May, Saturday

    Time Temperature Precipitation Wind Pressure Humidity
    00:00 +29°C° 0 mm 3 mps 754 mmHg 84%
    01:00 +28°C° 0 mm 3 mps 754 mmHg 84%
    02:00 +28°C° 0.1 mm 3 mps 754 mmHg 84%
    03:00 +28°C° 0.1 mm 3 mps 754 mmHg 84%
    04:00 +28°C° 0.1 mm 2 mps 754 mmHg 84%
    05:00 +28°C° 0.2 mm 2 mps 754 mmHg 83%
    06:00 +28°C° 0.2 mm 2 mps 754 mmHg 82%
    07:00 +28°C° 0.2 mm 2 mps 755 mmHg 82%
    08:00 +29°C° 0 mm 2 mps 755 mmHg 80%
    09:00 +29°C° 0 mm 2 mps 755 mmHg 78%
    10:00 +30°C° 0 mm 2 mps 756 mmHg 76%
    11:00 +30°C° 0 mm 3 mps 755 mmHg 76%
    12:00 +30°C° 0 mm 3 mps 755 mmHg 77%
    13:00 +30°C° 0 mm 3 mps 754 mmHg 77%
    14:00 +30°C° 0 mm 3 mps 754 mmHg 77%
    15:00 +30°C° 0 mm 4 mps 753 mmHg 77%
    16:00 +30°C° 0 mm 4 mps 753 mmHg 77%
    17:00 +29°C° 0 mm 4 mps 753 mmHg 78%
    18:00 +29°C° 0 mm 4 mps 754 mmHg 80%
    19:00 +29°C° 0 mm 3 mps 754 mmHg 81%
    20:00 +29°C° 0.1 mm 3 mps 755 mmHg 82%
    21:00 +29°C° 0.1 mm 3 mps 755 mmHg 82%
    22:00 +29°C° 0.1 mm 3 mps 756 mmHg 83%
    23:00 +29°C° 0.6 mm 3 mps 755 mmHg 84%

    27 May, Sunday

    Time Temperature Precipitation Wind Pressure Humidity
    00:00 +28°C° 0.6 mm 3 mps 755 mmHg 84%
    01:00 +28°C° 0.6 mm 3 mps 755 mmHg 85%
    02:00 +28°C° 0.1 mm 3 mps 754 mmHg 85%
    03:00 +28°C° 0.1 mm 2 mps 754 mmHg 85%
    04:00 +28°C° 0.1 mm 2 mps 754 mmHg 84%
    05:00 +28°C° 0.2 mm 2 mps 754 mmHg 84%
    06:00 +28°C° 0.2 mm 2 mps 755 mmHg 83%
    07:00 +28°C° 0.2 mm 1 mps 755 mmHg 82%
    08:00 +29°C° 0.6 mm 1 mps 755 mmHg 79%
    09:00 +29°C° 0.6 mm 1 mps 756 mmHg 77%
    10:00 +30°C° 0.6 mm 1 mps 756 mmHg 75%
    11:00 +30°C° 0.3 mm 1 mps 756 mmHg 76%
    12:00 +30°C° 0.3 mm 2 mps 755 mmHg 76%
    13:00 +30°C° 0.3 mm 2 mps 754 mmHg 77%
    14:00 +30°C° 0 mm 3 mps 754 mmHg 78%
    15:00 +30°C° 0 mm 4 mps 754 mmHg 80%
    16:00 +29°C° 0 mm 5 mps 753 mmHg 81%
    17:00 +29°C° 0 mm 5 mps 754 mmHg 82%
    18:00 +29°C° 0 mm 5 mps 754 mmHg 83%
    19:00 +29°C° 0 mm 5 mps 755 mmHg 84%
    20:00 +28°C° 0.1 mm 5 mps 755 mmHg 84%
    21:00 +28°C° 0.1 mm 4 mps 756 mmHg 84%
    22:00 +28°C° 0.1 mm 4 mps 756 mmHg 84%
    23:00 +28°C° 0.2 mm 4 mps 756 mmHg 84%
    Show more